sat.trackr.live / text

‹ back to catalog

STARLINK-31593

NORAD 59350 · 2024-060C

PAYLOAD ACTIVE UNKNOWN

§ Identity

Operator
Country
US
Launch date
2024-03-31
Launch site
AFETR
Launch vehicle
Mass (kg)
RCS (m²)

Purposes: comms

External: N2YO · Heavens-Above · Gunter

§ Orbital elements

Epoch: 2026-09-20T23:23:53.624544Z

Period
94.27 min
Inclination
43.0000°
Eccentricity
0.0000480
Mean motion
15.27573541 rev/d
Perigee alt
482.7 km
Apogee alt
483.4 km
Semi-major
6,861.2 km
B*
-1.0140e-4
RAAN
236.6023°
Arg perigee
161.9771°
Mean anomaly
198.1098°
Rev number
13,993

§ Raw data

STARLINK-315931 59350U 24060C   26263.97492621 -.00003050  00000+0 -10140-3 0  99912 59350  43.0000 236.6023 0000480 161.9771 198.1098 15.27573541139938

JSON: /api/v1/satellites/59350 · /tle

For live sub-satellite position, see the globe view (requires WebGL).

§ Visibility from observer

Set your observer location to see the next 7 days of passes ≥ 10°. The values pass through the URL so the page stays shareable.

No JS? Fill the form by hand. The geolocation button needs JavaScript.